Weather Roundup
Issued by NWS Chicago, IL

Home | Current Version | Previous Version | Graphics & Text | Print | Product List | Glossary On
Versions: 1 2 3 4 5 6 7 8 9 10 11 12 13 14 15 16 17 18 19 20 21 22 23 24 25 26 27 28 29 30 31 32 33 34 35 36 37 38 39 40 41 42 43 44 45 46 47 48 49 50
000
NZUS59 KLOT 202210
HRRLOT

CHICAGO AREA WEATHER ROUNDUP
NATIONAL WEATHER SERVICE CHICAGO/ROMEOVILLE IL
500 PM CDT SUN APR 20 2014

NOTE: "FAIR" INDICATES FEW OR NO CLOUDS BELOW 12,000 FEET WITH NO
SIGNIFICANT WEATHER AND/OR OBSTRUCTIONS TO VISIBILITY.

* THESE STATIONS ARE NOT UNDER NWS QUALITY CONTROL. THEY ALSO MAY NOT
  REPORT WEATHER SUCH AS PRECIPITATION OR FOG.

ILZ005-006-012>014-019>023-202300-
NORTHEAST ILLINOIS

CITY           SKY/WX    TMP DP  RH WIND       PRES   REMARKS
OHARE          PTSUNNY   78  39  24 S12       30.06F
MIDWAY         MOSUNNY   78  40  25 SW13      30.07F
AURORA         SUNNY     78  41  26 S13G20    30.07F
LANSING*       MOSUNNY   76  37  24 S12G17    30.09F
JOLIET*        SUNNY     77  37  23 S9        30.08F
WAUKEGAN       MOSUNNY   66  38  35 SE12      30.07F
DUPAGE AIRPORT SUNNY     79  42  26 S15       30.06F
WHEELING       SUNNY     78  40  25 S9        30.07F
KANKAKEE*      SUNNY     77  42  28 S5        30.09F
MORRIS*        SUNNY     80  26  13 SW10      30.07S
LEWIS AIRPORT* SUNNY     77  36  22 SW16      30.07F
NORTHERLY IS     N/A     61  40  45 CALM        N/A
$$

WIZ051-052-058>065-066-070>072-202300-
SOUTHEAST WISCONSIN

CITY           SKY/WX    TMP DP  RH WIND       PRES   REMARKS
MILWAUKEE      PTSUNNY   71  41  33 SE12      30.06F
KENOSHA*       MOSUNNY   73  41  31 SE14      30.07S
RACINE*        MOSUNNY   64  37  36 S14       30.09S
BURLINGTON     MOSUNNY   77  41  27 SW12      30.05F
WAUKESHA       MOSUNNY   75  41  29 SW15      30.06F
WEST BEND      CLOUDY    72  39  30 SW3       30.05F
$$

INZ001>003-010>013-019-020-202300-
NORTHWEST INDIANA

CITY           SKY/WX    TMP DP  RH WIND       PRES   REMARKS
GARY*          PTSUNNY   79  36  21 S7        30.09F
MICHIGAN CITY* NOT AVBL
RENSSELAER*    NOT AVBL
VALPARAISO     MOSUNNY   74  35  24 VRB5      30.11F
$$

LMZ740>746-202300-
SOUTHERN LAKE MICHIGAN

STATION/POSITION TIME  SKY/WX   TEMP WIND        PRES    VSBY
                                AIR  DIR/SP/G
                 (UTC)          (F)  (DEG/KT/KT) (MB)    (MI)
HARRISON CRIB    2200            58  120/ 19/ 21   N/A
BURNHAM HARBOR   2200            61  160/  4/  9   N/A
CALUMET HARBOR   2200            65  100/  5/  8 1019.4S
BURNS HARBOR     NOT AVBL
MICHIGAN CITY    2200            62   30/ 11/ 12   N/A
$$

ABBREVIATIONS USED IN REMARKS
   TC - TEMPERATURE IN CELSIUS
  WCI - WIND CHILL INDEX
   HX - HEAT INDEX
  VSB - VISIBILITY
$$



USA.gov is the U.S. government's official web portal to all federal, state and local government web resources and services.